This is the latest recevied weather packets stored in our database for station/object N8QQQ. If no packets are shown the sender has not sent any weather packets the latest 10 day(s).
| Time | Temp. | Humidity | Pressure | Rain* | Wind** | Luminosity | Snow |
|---|---|---|---|---|---|---|---|
| 1778127194 | -2.22° C | 84% | 1012.4 hPa | 0 mm | - | 0 W/m² | - |
| 1778126892 | -2.22° C | 83% | 1012.3 hPa | 0 mm | - | 0 W/m² | - |
| 1778126587 | -2.22° C | 83% | 1012.4 hPa | 0 mm | - | 0 W/m² | - |
| 1778126283 | -1.67° C | 83% | 1012.4 hPa | 0 mm | - | 0 W/m² | - |
| 1778125979 | -1.67° C | 84% | 1012.5 hPa | 0 mm | - | 0 W/m² | - |
| 1778125677 | -1.67° C | 84% | 1012.4 hPa | 0 mm | - | 0 W/m² | - |
| 1778125373 | -1.67° C | 85% | 1012.4 hPa | 0 mm | - | 0 W/m² | - |
| 1778125072 | -1.67° C | 86% | 1012.4 hPa | 0 mm | - | 0 W/m² | - |
| 1778124769 | -1.67° C | 85% | 1012.6 hPa | 0 mm | - | 0 W/m² | - |
| 1778124466 | -1.67° C | 83% | 1012.8 hPa | 0 mm | - | 0 W/m² | - |
| 1778124162 | -1.67° C | 83% | 1012.6 hPa | 0 mm | - | 0 W/m² | - |
| 1778123858 | -1.67° C | 84% | 1012.7 hPa | 0 mm | - | 0 W/m² | - |
| 1778123555 | -1.67° C | 83% | 1012.8 hPa | 0 mm | - | 0 W/m² | - |
| 1778123252 | -1.67° C | 82% | 1012.7 hPa | 0 mm | - | 0 W/m² | - |
| 1778122950 | -1.11° C | 82% | 1012.7 hPa | 0 mm | - | 0 W/m² | - |
| 1778122647 | -1.11° C | 81% | 1012.6 hPa | 0 mm | - | 0 W/m² | - |
| 1778122344 | -0.56° C | 79% | 1012.5 hPa | 0 mm | - | 0 W/m² | - |
| 1778122042 | 0° C | 78% | 1012.6 hPa | 0 mm | - | 0 W/m² | - |
| 1778121739 | 0° C | 76% | 1012.7 hPa | 0 mm | - | 0 W/m² | - |
| 1778121434 | 0.56° C | 74% | 1012.5 hPa | 0 mm | - | 0 W/m² | - |
| 1778121131 | 1.11° C | 75% | 1012.6 hPa | 0 mm | - | 0 W/m² | - |
| 1778120829 | 1.67° C | 71% | 1012.6 hPa | 0 mm | - | 0 W/m² | - |
| 1778120524 | 2.22° C | 66% | 1012.4 hPa | 0 mm | - | 0 W/m² | - |
| 1778120221 | 2.22° C | 64% | 1012.5 hPa | 0 mm | - | 0 W/m² | - |
| 1778119916 | 2.22° C | 63% | 1012.4 hPa | 0 mm | - | 0 W/m² | - |
* Rain latest hour (hover to see other rain measurements)
** Current wind speed in m/s (hover to see current wind gust speed)